Weather History for KLEX - December, 2011

Change the Weather History Date:

Tuesday, December 27, 2011

  Actual Average Record
Temperature  
Mean Temperature 39 °F 34 °F  
Max Temperature 43 °F 42 °F 70 °F (2008)
Min Temperature 34 °F 26 °F -5 °F (1935)
Degree Days  
Heating Degree Days 26 31  
Month to date heating degree days 658 773  
Since 1 July heating degree days 1509 1660  
Cooling Degree Days 0 0  
Month to date cooling degree days 0 0  
Year to date cooling degree days 1306 1190  
Moisture  
Dew Point 36 °F    
Average Humidity 85    
Maximum Humidity 100    
Minimum Humidity 70    
Precipitation  
Precipitation 1.16 in 0.12 in 1.16 in (2011)
Month to date precipitation 4.43 3.47  
Year to date precipitation 66.35 44.71  
Snow  
Snow T in 0.10 in 3.70 in (1894)
Month to date snowfall T 2.0  
Since 1 July snowfall T 2.3  
Snow Depth 0.00 in    
Sea Level Pressure  
Sea Level Pressure 29.69 in    
Wind  
Wind Speed 12 mph (SW)    
Max Wind Speed 25 mph    
Max Gust Speed 36 mph    
Visibility 7 miles    
Events Rain , Snow    
T = Trace of Precipitation, MM = Missing Value Source: NWS Daily Summary

Daily Weather History Graph

Daily Weather History Graph

Search for Another Location

Airport or City:

Trip Planner

Search our weather history database for the weather conditions in past years. The results will help you decide how hot, cold, wet, or windy it might be!

Date:

Astronomy

Dec. 27, 2011 Rise Set
Actual Time 7:53 AM EST 5:25 PM EST
Civil Twilight 7:23 AM EST 5:55 PM EST
Nautical Twilight 6:50 AM EST 6:28 PM EST
Astronomical Twilight 6:18 AM EST 7:00 PM EST
Moon 9:50 AM EST (12/27) 8:55 PM EST (12/27)
Length of Visible Light 10h 31m
Length of Day
9h 32m
Waxing Crescent, 11% of the Moon is Illuminated
Dec 27
Waxing Crescent
Jan 1
First Quarter
Jan 9
Full
Jan 16
Last Quarter
Jan 23
New

Hourly Weather History & Observations

Time (EST) Temp. Windchill Dew Point Humidity Pressure Visibility Wind Dir Wind Speed Gust Speed Precip Events Conditions
12:54 AM 41.0 °F 38.0 °F 30.9 °F 67% 29.94 in 10.0 mi Variable 4.6 mph - 0.00 in Rain Light Rain
1:54 AM 37.9 °F 34.4 °F 34.0 °F 86% 29.91 in 9.0 mi South 4.6 mph - 0.04 in Rain Light Rain
2:54 AM 37.9 °F 32.7 °F 35.1 °F 89% 29.85 in 6.0 mi ESE 6.9 mph - 0.07 in Rain Rain
3:54 AM 37.9 °F 35.5 °F 36.0 °F 93% 29.84 in 5.0 mi WNW 3.5 mph - 0.25 in Rain Rain
4:20 AM 37.4 °F 32.8 °F 37.4 °F 100% 29.81 in 5.0 mi SSE 5.8 mph - N/A Rain Rain
4:54 AM 37.9 °F 34.4 °F 37.0 °F 97% 29.79 in 7.0 mi SE 4.6 mph - 0.16 in Rain Light Rain
5:32 AM 37.4 °F 30.8 °F 37.4 °F 100% 29.74 in 6.0 mi ESE 9.2 mph - 0.05 in Rain Rain
5:54 AM 39.0 °F 32.8 °F 37.0 °F 93% 29.73 in 8.0 mi ESE 9.2 mph - 0.08 in Rain Light Rain
6:01 AM 39.2 °F 33.6 °F 37.4 °F 93% 29.71 in 7.0 mi ESE 8.1 mph - N/A Rain Light Rain
6:54 AM 39.0 °F 32.3 °F 37.9 °F 96% 29.68 in 9.0 mi SSE 10.4 mph - 0.07 in Rain Light Rain
7:54 AM 39.9 °F 35.1 °F 39.0 °F 97% 29.62 in 7.0 mi SSE 6.9 mph - 0.06 in Rain Rain
7:56 AM 39.2 °F 33.6 °F 39.2 °F 100% 29.62 in 7.0 mi SSE 8.1 mph - 0.00 in Rain Rain
8:54 AM 39.2 °F 33.0 °F 39.2 °F 100% 29.58 in 4.0 mi SSE 9.2 mph - N/A Rain Light Rain
9:54 AM 41.0 °F 34.7 °F 39.0 °F 93% 29.56 in 4.0 mi SSE 10.4 mph - 0.07 in Rain Light Rain
10:30 AM 41.0 °F 34.7 °F 39.2 °F 93% 29.53 in 4.0 mi South 10.4 mph - 0.07 in Rain Rain
10:37 AM 42.8 °F 34.8 °F 39.2 °F 87% 29.53 in 2.5 mi South 17.3 mph 24.2 mph 0.10 in Rain Heavy Rain
10:54 AM 42.1 °F 35.2 °F 39.9 °F 92% 29.53 in 5.0 mi South 12.7 mph - 0.14 in Rain Light Rain
11:54 AM 43.0 °F 35.1 °F 41.0 °F 93% 29.51 in 9.0 mi WSW 17.3 mph 24.2 mph 0.04 in Rain Light Rain
12:21 PM 42.8 °F 33.5 °F 39.2 °F 87% 29.50 in 6.0 mi WSW 23.0 mph 33.4 mph 0.03 in Rain Light Rain
12:46 PM 41.0 °F 31.1 °F 37.4 °F 87% 29.51 in 10.0 mi West 23.0 mph 32.2 mph 0.04 in Rain Light Rain
12:54 PM 41.0 °F 31.9 °F 37.9 °F 89% 29.52 in 10.0 mi West 19.6 mph 28.8 mph 0.05 in Rain Light Rain
1:23 PM 39.2 °F 29.8 °F 35.6 °F 87% 29.53 in 10.0 mi West 18.4 mph 31.1 mph 0.00 in Rain Light Rain
1:41 PM 39.2 °F 29.8 °F 35.6 °F 87% 29.54 in 9.0 mi West 18.4 mph 28.8 mph 0.00 in Rain Light Rain
1:50 PM 39.2 °F 29.3 °F 35.6 °F 87% 29.55 in 6.0 mi West 20.7 mph 31.1 mph 0.00 in Rain Light Rain
1:54 PM 37.9 °F 27.9 °F 36.0 °F 93% 29.57 in 8.0 mi West 19.6 mph 31.1 mph 0.00 in Rain Light Rain
2:15 PM 37.4 °F 26.4 °F 33.8 °F 87% 29.57 in 7.0 mi West 23.0 mph 28.8 mph 0.01 in Rain Light Rain
2:54 PM 35.1 °F 25.5 °F 33.1 °F 92% 29.62 in 7.0 mi WSW 15.0 mph 28.8 mph 0.02 in Snow Light Snow
3:54 PM 35.1 °F 24.5 °F 33.1 °F 92% 29.67 in 9.0 mi WSW 18.4 mph 23.0 mph 0.01 in   Overcast
4:54 PM 35.1 °F 24.8 °F 33.1 °F 92% 29.72 in 9.0 mi West 17.3 mph 35.7 mph 0.00 in   Overcast
5:54 PM 35.1 °F 24.1 °F 33.1 °F 92% 29.76 in 10.0 mi West 19.6 mph 26.5 mph 0.00 in Rain Light Rain
6:54 PM 36.0 °F 27.1 °F 33.1 °F 89% 29.79 in 8.0 mi West 13.8 mph 26.5 mph 0.00 in   Overcast
7:54 PM 37.0 °F 28.5 °F 34.0 °F 89% 29.83 in 8.0 mi West 13.8 mph 23.0 mph N/A   Overcast
8:20 PM 37.4 °F 27.8 °F 33.8 °F 87% 29.82 in 8.0 mi West 17.3 mph 26.5 mph N/A   Overcast
8:54 PM 37.0 °F 27.7 °F 34.0 °F 89% 29.85 in 10.0 mi West 16.1 mph 27.6 mph N/A   Overcast
9:37 PM 37.4 °F 29.3 °F 33.8 °F 87% 29.85 in 8.0 mi WNW 12.7 mph 20.7 mph 0.00 in Rain Light Rain
9:54 PM 37.0 °F 28.9 °F 34.0 °F 89% 29.87 in 9.0 mi West 12.7 mph 21.9 mph 0.00 in Rain Light Rain
10:54 PM 37.0 °F 28.9 °F 34.0 °F 89% 29.89 in 6.0 mi West 12.7 mph 20.7 mph 0.00 in   Overcast
11:54 PM 37.0 °F 28.9 °F 33.1 °F 86% 29.91 in 10.0 mi West 12.7 mph - N/A   Overcast